Location: Newark
(16.3678°N, 77.8722°E)
Time: 02:13:15
(UTC+00:00)

Tiros 1 - Pass Details

Date: 10 December 2019
Orbit: 630 x 664 km, 48.4° (Epoch: 28 January)

Event Time Altitude Azimuth Distance (km) Brightness Sun altitude
Rises 07:42:19 0° 338° (NNW) 2,907 10.2 48.0°
Reaches altitude 10° 07:45:11 10° 356° (N) 1,998 9.4 47.7°
Maximum altitude 07:48:32 20° 43° (NE) 1,462 8.8 47.4°
Drops below altitude 10° 07:51:54 10° 90° (E) 1,999 9.6 47.1°
Sets 07:54:45 0° 107° (ESE) 2,909 10.5 46.8°
